User: anonymous   Login
Location: Rottenacker
(48.2350°N, 9.6886°E)
Time: 07:21:15
(UTC+02:00)
Language:

Tiangong 2 - Orbit

View from above orbital plane
View from above orbital plane
View from above satellite
View from above satellite

Ground track
Ground track

The orbit data is extracted from the following two-line orbital elements,

1 41765U 16057A   18233.72201100  .00003324  00000-0  45773-4 0  9994
2 41765  42.7853 310.6933 0007688 347.6947 154.1516 15.59274567110251
Epoch (UTC): 21 August 2018 17:19:41
Eccentricity: 0.0007688
inclination: 42.7853°
perigee height: 384 km
apogee height: 395 km
right ascension of ascending node: 310.6933°
argument of perigee: 347.6947°
revolutions per day: 15.59274567
mean anomaly at epoch: 154.1516°
orbit number at epoch: 11025

The dashed part of the orbit path shows where the satellite is in the earth's shadow,  

DLR